Simultaneous Nadir Overpasses (SNOs) Predictions

Prediction of SNOs between FY3D and TERRA Satellite Orbit:

Table of predicted SNOs for the next 14.0 days since TLE Epoch: 6/26/2021
Index Date (FY3D) Time (FY3D) Lat,Lon (FY3D) SZA (FY3D ) Date (TERRA) Time (TERRA) Lat,Lon (TERRA) SZA (TERRA ) Distance(km) Time Diff (sec)
1 06/28/2021 06:59:36 70.24, 74.28 46.89 06/28/2021 07:00:47 70.11, 74.98 46.74 30.53 71
2 06/28/2021 07:50:11 -69.81,-117.74 133.56 06/28/2021 07:50:20 -69.83,-117.77 133.54 2.76 9
3 06/28/2021 08:40:55 69.72, 49.71 46.36 06/28/2021 08:39:47 69.73, 49.73 46.36 0.98 68
4 06/30/2021 23:15:58 70.47,-170.14 47.28 06/30/2021 23:17:07 70.40,-168.71 47.19 53.64 69
5 07/01/2021 00:06:30 -69.87, -1.89 133.34 07/01/2021 00:06:45 -69.85, -1.86 133.36 2.27 15
6 07/01/2021 00:57:13 69.73, 165.63 46.53 07/01/2021 00:56:12 69.74, 165.63 46.54 0.92 61
7 07/03/2021 15:32:22 70.75, -54.65 47.77 07/03/2021 15:33:29 70.64, -52.49 47.63 80.55 67
8 07/03/2021 16:22:49 -69.88, 114.04 133.12 07/03/2021 16:23:11 -69.87, 114.04 133.14 1.35 22
9 07/03/2021 17:13:32 69.75, -78.46 46.75 07/03/2021 17:12:38 69.76, -78.47 46.76 0.71 54
10 07/06/2021 08:39:08 -69.89,-130.04 132.86 07/06/2021 08:39:37 -69.88,-130.06 132.87 1.74 29
11 07/06/2021 09:29:51 69.77, 37.46 47.03 07/06/2021 09:29:04 69.76, 37.42 47.02 1.71 47
12 07/09/2021 00:55:27 -69.91, -14.12 132.54 07/09/2021 00:56:03 -69.89, -14.18 132.57 3.26 36
13 07/09/2021 01:46:10 69.79, 153.37 47.35 07/09/2021 01:45:29 69.82, 153.38 47.38 3.43 41



Historial Predications of SNOs between FY3D and TERRA
